This demonstration page uses our WeatherBlox Daily Observations layout. Learn more.

38.89511, -77.03637

Hourly Observations for January 2, 2015

Temp ( °F °C ) Dew Point ( °F °C ) Humidity (%) Winds ( mph kmh ) Pressure ( in mb ) Visibility ( mi km ) Precip ( " mm )
12:52 am 00:52 Partly Cloudy 40 4.4 23 -5 51 51 N 9 15 30.12 1020 10 16.0934 0 0
1:52 am 01:52 Mostly Cloudy 39 3.9 27 -2.8 62 62 Calm 30.14 1021 10 16.0934 0 0
2:52 am 02:52 Clear 38 3.3 23 -5 55 55 S 3 6 30.16 1021 10 16.0934 0 0
3:52 am 03:52 Cloudy 38 3.3 26 -3.3 62 62 Calm 30.17 1022 10 16.0934 0 0
4:52 am 04:52 Mostly Cloudy 38 3.3 27 -2.8 65 65 S 3 6 30.18 1022 10 16.0934 0 0
5:52 am 05:52 Cloudy 39 3.9 27 -2.8 62 62 Calm 30.2 1023 10 16.0934 0 0
6:52 am 06:52 Mostly Cloudy 37 2.8 27 -2.8 67 67 Calm 30.22 1024 10 16.0934 0 0
7:52 am 07:52 Cloudy 37 2.8 26 -3.3 65 65 NNW 5 7 30.26 1025 10 16.0934 0 0
8:52 am 08:52 Cloudy 40 4.4 22 -5.6 49 49 Calm 30.29 1026 10 16.0934 0 0
9:52 am 09:52 Cloudy 43 6.1 22 -5.6 43 43 Calm 30.31 1026 10 16.0934 0 0
10:52 am 10:52 Cloudy 43 6.1 22 -5.6 43 43 N 9 15 30.32 1027 10 16.0934 0 0
11:52 am 11:52 Cloudy 45 7.2 22 -5.6 40 40 N 3 6 30.31 1026 10 16.0934 0 0
12:52 pm 12:52 Cloudy 47 8.3 22 -5.6 37 37 Calm 30.29 1026 10 16.0934 0 0
1:52 pm 13:52 Cloudy 48 8.9 21 -6.1 34 34 W 5 7 30.3 1026 10 16.0934 0 0
2:52 pm 14:52 Cloudy 49 9.4 20 -6.7 32 32 WNW 7 11 30.32 1027 10 16.0934 0 0
3:52 pm 15:52 Cloudy 48 8.9 22 -5.6 36 36 N 3 6 30.33 1027 10 16.0934 0 0
4:52 pm 16:52 Cloudy 45 7.2 22 -5.6 40 40 N 6 9 30.35 1028 10 16.0934 0 0
5:52 pm 17:52 Cloudy 44 6.7 22 -5.6 41 41 N 3 6 30.36 1028 10 16.0934 0 0
6:52 pm 18:52 Mostly Cloudy 43 6.1 24 -4.4 47 47 SSE 3 6 30.39 1029 10 16.0934 0 0
7:52 pm 19:52 Mostly Cloudy 40 4.4 27 -2.8 60 60 S 3 6 30.41 1030 10 16.0934 0 0
8:52 pm 20:52 Cloudy 40 4.4 29 -1.7 65 65 Calm 30.42 1030 10 16.0934 0 0
9:52 pm 21:52 Cloudy 39 3.9 29 -1.7 67 67 Calm 30.42 1030 10 16.0934 0 0
10:52 pm 22:52 Mostly Cloudy 39 3.9 29 -1.7 67 67 Calm 30.44 1031 10 16.0934 0 0
11:52 pm 23:52 Partly Cloudy 35 1.7 26 -3.3 70 70 N 5 7 30.43 1030 10 16.0934 0 0

Powered by AerisWeather